Hourly Weather Lukyancy

Today, 12 May, Wednesday

Time Temperature Precipitation Wind Pressure Humidity
00:00 +10°C° 0 mm 3 mps 754 mmHg 86%
01:00 +10°C° 0 mm 2 mps 754 mmHg 89%
02:00 +10°C° 0 mm 2 mps 754 mmHg 92%
03:00 +10°C° 0 mm 2 mps 754 mmHg 93%
04:00 +10°C° 0 mm 2 mps 754 mmHg 94%
05:00 +12°C° 0 mm 2 mps 754 mmHg 95%
06:00 +13°C° 0 mm 3 mps 754 mmHg 88%
07:00 +16°C° 0 mm 3 mps 754 mmHg 82%
08:00 +18°C° 0 mm 4 mps 754 mmHg 75%
09:00 +19°C° 0 mm 4 mps 754 mmHg 71%
10:00 +20°C° 0 mm 5 mps 754 mmHg 67%
11:00 +21°C° 0 mm 5 mps 753 mmHg 63%
12:00 +20°C° 0 mm 5 mps 753 mmHg 61%
13:00 +20°C° 0 mm 5 mps 753 mmHg 59%
14:00 +19°C° 0 mm 5 mps 753 mmHg 57%
15:00 +19°C° 0 mm 5 mps 753 mmHg 56%
16:00 +19°C° 0 mm 4 mps 752 mmHg 54%
17:00 +19°C° 0 mm 4 mps 752 mmHg 52%
18:00 +17°C° 0 mm 3 mps 752 mmHg 59%
19:00 +15°C° 0 mm 2 mps 751 mmHg 66%
20:00 +13°C° 0 mm 2 mps 751 mmHg 72%
21:00 +13°C° 0 mm 2 mps 750 mmHg 71%
22:00 +13°C° 0 mm 2 mps 750 mmHg 69%
23:00 +13°C° 0 mm 2 mps 749 mmHg 68%

Tomorrow, 13 May, Thursday

Time Temperature Precipitation Wind Pressure Humidity
00:00 +13°C° 0.4 mm 2 mps 748 mmHg 75%
01:00 +12°C° 0.4 mm 2 mps 747 mmHg 83%
02:00 +12°C° 0.4 mm 2 mps 747 mmHg 90%
03:00 +11°C° 1.8 mm 3 mps 746 mmHg 91%
04:00 +10°C° 1.8 mm 5 mps 746 mmHg 92%
05:00 +10°C° 1.8 mm 6 mps 746 mmHg 93%
06:00 +10°C° 0 mm 6 mps 746 mmHg 91%
07:00 +9°C° 0 mm 7 mps 746 mmHg 88%
08:00 +9°C° 0 mm 7 mps 746 mmHg 86%
09:00 +10°C° 0.1 mm 7 mps 746 mmHg 79%
10:00 +11°C° 0.1 mm 7 mps 746 mmHg 72%
11:00 +12°C° 0.1 mm 7 mps 746 mmHg 65%
12:00 +13°C° 0.4 mm 6 mps 746 mmHg 70%
13:00 +11°C° 0.4 mm 6 mps 746 mmHg 75%
14:00 +12°C° 0.4 mm 5 mps 746 mmHg 79%
15:00 +10°C° 0.2 mm 5 mps 746 mmHg 81%
16:00 +11°C° 0.2 mm 4 mps 746 mmHg 82%
17:00 +11°C° 0.2 mm 4 mps 745 mmHg 83%
18:00 +10°C° 0 mm 3 mps 745 mmHg 85%
19:00 +9°C° 0 mm 3 mps 745 mmHg 87%
20:00 +9°C° 0 mm 2 mps 745 mmHg 90%
21:00 +9°C° 0 mm 2 mps 745 mmHg 90%
22:00 +9°C° 0 mm 3 mps 745 mmHg 91%
23:00 +9°C° 0 mm 3 mps 745 mmHg 91%

Day after tomorrow, 14 May, Friday

Time Temperature Precipitation Wind Pressure Humidity
00:00 +9°C° 0 mm 3 mps 745 mmHg 91%
01:00 +8°C° 0 mm 3 mps 744 mmHg 90%
02:00 +7°C° 0 mm 4 mps 744 mmHg 89%
03:00 +7°C° 0.1 mm 4 mps 744 mmHg 90%
04:00 +8°C° 0.1 mm 4 mps 743 mmHg 92%
05:00 +8°C° 0.1 mm 5 mps 743 mmHg 93%
06:00 +8°C° 0.5 mm 5 mps 743 mmHg 93%
07:00 +9°C° 0.5 mm 5 mps 743 mmHg 93%
08:00 +9°C° 0.5 mm 5 mps 743 mmHg 94%
09:00 +10°C° 0 mm 5 mps 743 mmHg 91%
10:00 +12°C° 0 mm 5 mps 743 mmHg 89%
11:00 +13°C° 0 mm 5 mps 743 mmHg 86%
12:00 +13°C° 0.1 mm 5 mps 743 mmHg 86%
13:00 +13°C° 0.1 mm 5 mps 743 mmHg 86%
14:00 +13°C° 0.1 mm 4 mps 744 mmHg 86%
15:00 +14°C° 0.1 mm 4 mps 743 mmHg 84%
16:00 +16°C° 0.1 mm 3 mps 743 mmHg 81%
17:00 +16°C° 0.1 mm 3 mps 743 mmHg 79%
18:00 +15°C° 0.2 mm 2 mps 743 mmHg 83%
19:00 +14°C° 0.2 mm 2 mps 743 mmHg 87%
20:00 +13°C° 0.2 mm 1 mps 743 mmHg 91%
21:00 +13°C° 0 mm 1 mps 743 mmHg 92%
22:00 +12°C° 0 mm 1 mps 743 mmHg 93%
23:00 +12°C° 0 mm 1 mps 743 mmHg 94%

15 May, Saturday

Time Temperature Precipitation Wind Pressure Humidity
00:00 +11°C° 0 mm 1 mps 743 mmHg 95%
01:00 +11°C° 0 mm 1 mps 743 mmHg 95%
02:00 +10°C° 0 mm 1 mps 743 mmHg 96%
03:00 +10°C° 0 mm 1 mps 743 mmHg 96%
04:00 +10°C° 0 mm 1 mps 743 mmHg 96%
05:00 +10°C° 0 mm 1 mps 743 mmHg 97%
06:00 +12°C° 0 mm 1 mps 743 mmHg 93%
07:00 +13°C° 0 mm 1 mps 743 mmHg 90%
08:00 +15°C° 0 mm 1 mps 743 mmHg 86%
09:00 +15°C° 0 mm 1 mps 743 mmHg 84%
10:00 +16°C° 0 mm 2 mps 743 mmHg 81%
11:00 +16°C° 0 mm 2 mps 744 mmHg 78%
12:00 +17°C° 0 mm 2 mps 743 mmHg 72%
13:00 +18°C° 0 mm 2 mps 743 mmHg 67%
14:00 +19°C° 0 mm 2 mps 743 mmHg 61%
15:00 +19°C° 0.3 mm 2 mps 743 mmHg 66%
16:00 +18°C° 0.3 mm 2 mps 743 mmHg 70%
17:00 +18°C° 0.3 mm 2 mps 743 mmHg 75%
18:00 +17°C° 0.3 mm 2 mps 743 mmHg 80%
19:00 +15°C° 0.3 mm 2 mps 743 mmHg 86%
20:00 +14°C° 0.3 mm 2 mps 743 mmHg 91%
21:00 +14°C° 0.1 mm 2 mps 743 mmHg 93%
22:00 +12°C° 0.1 mm 3 mps 743 mmHg 95%
23:00 +12°C° 0.1 mm 3 mps 744 mmHg 97%

16 May, Sunday

Time Temperature Precipitation Wind Pressure Humidity
00:00 +11°C° 0.1 mm 3 mps 744 mmHg 96%
01:00 +11°C° 0.1 mm 3 mps 744 mmHg 96%
02:00 +11°C° 0.1 mm 3 mps 745 mmHg 96%
03:00 +11°C° 0.2 mm 3 mps 745 mmHg 96%
04:00 +10°C° 0.2 mm 3 mps 745 mmHg 95%
05:00 +10°C° 0.2 mm 3 mps 745 mmHg 95%
06:00 +10°C° 0.1 mm 3 mps 746 mmHg 94%
07:00 +10°C° 0.1 mm 2 mps 746 mmHg 94%
08:00 +10°C° 0.1 mm 2 mps 746 mmHg 93%
09:00 +10°C° 0 mm 2 mps 747 mmHg 91%
10:00 +12°C° 0 mm 2 mps 747 mmHg 88%
11:00 +13°C° 0 mm 2 mps 748 mmHg 85%
12:00 +14°C° 0 mm 1 mps 748 mmHg 79%
13:00 +16°C° 0 mm 1 mps 748 mmHg 72%
14:00 +19°C° 0 mm 1 mps 748 mmHg 66%
15:00 +19°C° 0 mm 1 mps 748 mmHg 65%
16:00 +17°C° 0 mm 0 mps 748 mmHg 64%
17:00 +17°C° 0 mm 0 mps 747 mmHg 63%
18:00 +18°C° 0 mm 1 mps 748 mmHg 69%
19:00 +16°C° 0 mm 1 mps 748 mmHg 76%
20:00 +14°C° 0 mm 2 mps 748 mmHg 82%
21:00 +13°C° 0 mm 2 mps 748 mmHg 85%
22:00 +12°C° 0 mm 2 mps 748 mmHg 88%
23:00 +12°C° 0 mm 2 mps 748 mmHg 90%

17 May, Monday

Time Temperature Precipitation Wind Pressure Humidity
00:00 +10°C° 0 mm 2 mps 748 mmHg 90%
01:00 +10°C° 0 mm 2 mps 749 mmHg 90%
02:00 +9°C° 0 mm 2 mps 749 mmHg 89%
03:00 +9°C° 0 mm 2 mps 749 mmHg 90%
04:00 +9°C° 0 mm 2 mps 748 mmHg 90%
05:00 +9°C° 0 mm 2 mps 748 mmHg 90%
06:00 +11°C° 0 mm 3 mps 748 mmHg 85%
07:00 +13°C° 0 mm 4 mps 748 mmHg 80%
08:00 +15°C° 0 mm 4 mps 748 mmHg 75%
09:00 +16°C° 0 mm 5 mps 748 mmHg 70%
10:00 +17°C° 0 mm 5 mps 747 mmHg 66%
11:00 +20°C° 0 mm 5 mps 747 mmHg 61%
12:00 +20°C° 0 mm 5 mps 747 mmHg 63%
13:00 +20°C° 0 mm 4 mps 746 mmHg 64%
14:00 +20°C° 0 mm 4 mps 746 mmHg 65%
15:00 +20°C° 0 mm 4 mps 745 mmHg 65%
16:00 +21°C° 0 mm 5 mps 745 mmHg 64%
17:00 +21°C° 0 mm 5 mps 744 mmHg 64%
18:00 +20°C° 0.6 mm 5 mps 744 mmHg 71%
19:00 +19°C° 0.6 mm 5 mps 743 mmHg 78%
20:00 +16°C° 0.6 mm 5 mps 742 mmHg 85%
21:00 +17°C° 1.7 mm 4 mps 742 mmHg 89%
22:00 +16°C° 1.7 mm 3 mps 742 mmHg 92%
23:00 +16°C° 1.7 mm 1 mps 742 mmHg 95%
Show more

We Need Your Consent

Meteoprog and our Service Providers may store and access personal data such as cookies, device identifiers or other similar technologies on your device and process such data to personalise content and ads, as well as provide social media features and to analyse the traffic.

  • Store and/or access information on your device

    Cookies, device identifiers or other information can be stored or accessed on your device for the purposes indicated above.

  • Personalised ads and content, ad and content measurement, audience insights, and products development

    Ads and content can be personalised based on a profile. More data can be added to better personalise ads and content. Ad and content performance can be measured. Insights about the audience who saw the ads and content can be derived. Such data can be used to develop or improve user’s experience, systems and software.

By clicking ‘I Agree’ you will allow the use of indicated cookies, device identifiers, web beacons or other similar technologies. Your settings can be changed in the browser on your device.

For certain purposes, legitimate interests may be relied on, rather than consent. You can read more about this in our Privacy and Cookie Policy.